Home > Weather > Bologna > Past weeks

Flag for Italy Weather for the Past 2 Weeks in Bologna, Italy

Now
39 °F

Passing clouds.


Feels Like: 34 °F
Forecast: 35 / 49 °F
Wind: 8 mph from West

Location: Bologna / Borgo Panigale

Current Time: Feb 13, 2016 at 3:44:55 AM

Latest Report: Feb 13, 2016 at 2:50 AM


Visibility: 4 mi

Pressure: 29.47 "Hg

Humidity: 93%

Dew point: 37 °F

Location of BolognaLocation

Historic Weather in Bologna — Graph

°F

Bologna Temperature Yesterday

Maximum temperature yesterday: 48 °F (at 12:20 PM)
Minimum temperature yesterday: 36 °F (at 12:20 AM)
Average temperature yesterday: 43 °F

High & Low Weather Summary for the Past Weeks

 TemperatureHumidityPressure
High63 °F (Feb 9, 1:50 PM)100% (Jan 29, 3:50 AM)30.48 "Hg (Jan 29, 3:50 AM)
Low32 °F (Feb 5, 6:50 AM)19% (Feb 10, 2:20 PM)29.30 "Hg (Feb 10, 2:20 AM)
Average45 °F81%30.04 "Hg
* Reported Jan 29 1:50 AM — Feb 13 1:50 AM, Bologna, Weather by CustomWeather, © 2016

Note: Actual official high and low records may vary slightly from our data, if they occured in-between our weather recording intervals... More about our weather records

Advertising

Bologna Weather History for the Previous 24 Hours

 ConditionsComfort  
Time TempWeatherWind HumidityBarometerVisibility
1:50 AM
Sat, Feb 13
39 °FDrizzle. Fog.9 mph100%29.47 "Hg2 mi
1:20 AM39 °FDrizzle. Fog.9 mph100%29.47 "Hg2 mi
12:50 AM41 °FPassing clouds.10 mph93%29.47 "Hg2 mi
11:50 PM
Fri, Feb 12
41 °FLight rain. Passing clouds.9 mph93%29.47 "Hg3 mi
11:20 PM43 °FRain. Passing clouds.7 mph93%29.45 "Hg2 mi
10:50 PM43 °FRain. Partly cloudy.9 mph93%29.45 "Hg3 mi
10:20 PM43 °FRain. Partly cloudy.6 mph100%29.42 "Hg3 mi
9:50 PM45 °FLight rain. Partly cloudy.7 mph93%29.42 "Hg4 mi
9:20 PM45 °FLight rain. Fog.7 mph93%29.45 "Hg3 mi
8:50 PM45 °FLight rain. Partly cloudy.9 mph93%29.45 "Hg2 mi
8:20 PM45 °FRain. Partly cloudy.8 mph93%29.47 "Hg2 mi
7:50 PM45 °FRain. Partly cloudy.10 mph93%29.47 "Hg2 mi
7:20 PM45 °FRain. Partly cloudy.12 mph93%29.47 "Hg4 mi
6:50 PM46 °FPassing clouds.12 mph82%29.50 "HgN/A
6:20 PM46 °FPassing clouds.12 mph82%29.50 "HgN/A
5:50 PM46 °FPassing clouds.12 mph82%29.53 "HgN/A
5:20 PM46 °FDrizzle. Partly sunny.9 mph76%29.56 "HgN/A
4:50 PM46 °FPartly sunny.9 mph76%29.56 "HgN/A
4:20 PM48 °FScattered clouds.9 mph71%29.59 "HgN/A
3:50 PM48 °FScattered clouds.8 mph66%29.59 "HgN/A
3:20 PM48 °FPassing clouds.7 mph66%29.59 "HgN/A
2:50 PM48 °FPassing clouds.5 mph66%29.62 "HgN/A
2:20 PM48 °FPassing clouds.5 mph66%29.62 "HgN/A
1:50 PM48 °FPassing clouds.5 mph66%29.65 "HgN/A
1:20 PM48 °FPassing clouds.3 mph66%29.65 "HgN/A
12:50 PM48 °FPassing clouds.5 mph62%29.68 "HgN/A
12:20 PM48 °FPassing clouds.7 mph62%29.68 "HgN/A
11:50 AM46 °FPassing clouds.5 mph66%29.71 "HgN/A
11:20 AM46 °FSunny.5 mph71%29.71 "Hg10 mi
10:50 AM45 °FScattered clouds.7 mph71%29.71 "HgN/A
10:20 AM45 °FPartly sunny.6 mph76%29.71 "Hg5 mi
9:50 AM43 °FPartly sunny.6 mph81%29.74 "Hg4 mi
9:20 AM41 °FPartly sunny.6 mph81%29.74 "Hg4 mi
8:50 AM39 °FBroken clouds.5 mph87%29.74 "Hg6 mi
8:20 AM39 °FDrizzle. Partly sunny.6 mph81%29.74 "HgN/A
7:50 AM39 °FPartly sunny.6 mph81%29.74 "HgN/A
7:20 AM39 °FPartly sunny.7 mph75%29.74 "HgN/A
6:50 AM39 °FLight rain. Passing clouds.3 mph75%29.71 "HgN/A
6:20 AM39 °FPassing clouds.3 mph81%29.71 "Hg5 mi
5:50 AM37 °FLight rain. Passing clouds.5 mph87%29.71 "Hg5 mi
5:20 AM37 °FLight rain. Passing clouds.2 mph87%29.71 "Hg5 mi
4:50 AM37 °FPassing clouds.2 mph87%29.71 "Hg5 mi
4:20 AM37 °FLight rain. Passing clouds.1 mph87%29.71 "Hg5 mi
3:50 AM39 °FLight rain. Passing clouds.1 mph81%29.71 "Hg5 mi
3:20 AM39 °FPassing clouds.3 mph75%29.74 "HgN/A
Weather by CustomWeather, © 2016

See weather overviewHow to use our weather pages